Brookhaven, MS

9:32 PM CDT on June 24, 2017 (GMT -0500)
Brookhaven

Weather History for K1R7 - April, 2014

Change the Weather History Date:

Monday, April 28, 2014

  Actual Average (KMCB) Record (KMCB)
Temperature  
Mean Temperature 78 °F -  
Max Temperature 86 °F 79 °F 89 °F (1971)
Min Temperature 69 °F 56 °F 41 °F (1992)
Cooling Degree Days 12    
Growing Degree Days 28 (Base 50)    
Moisture  
Dew Point 71 °F    
Average Humidity 82    
Maximum Humidity 100    
Minimum Humidity 62    
Precipitation  
Precipitation 0.15 in - - ()
Sea Level Pressure  
Sea Level Pressure 29.70 in    
Wind  
Wind Speed 13 mph (South)    
Max Wind Speed 20 mph    
Max Gust Speed 31 mph    
Visibility 9 miles    
Events Rain , Thunderstorm    
Averages and records for this station are not official NWS values.
T = Trace of Precipitation, MM = Missing Value Source: NWS Daily Summary

Daily Weather History Graph

Daily Weather History Graph

Search for Another Location

Airport or City:

Trip Planner

Search our weather history database for the weather conditions in past years. The results will help you decide how hot, cold, wet, or windy it might be!

Date:

Astronomy

Apr. 28, 2014 Rise Set
Actual Time 6:19 AM CDT 7:39 PM CDT
Civil Twilight 5:53 AM CDT 8:05 PM CDT
Nautical Twilight 5:22 AM CDT 8:35 PM CDT
Astronomical Twilight 4:51 AM CDT 9:07 PM CDT
Moon 5:53 AM CDT (4/28) 7:19 PM CDT (4/28)
Length of Visible Light 14h 11m
Length of Day
13h 20m
Waning Crescent, 0% of the Moon is Illuminated
Apr 28
Waning Crescent
Apr 29
New
May 6
First Quarter
May 14
Full
May 21
Last Quarter

Hourly Weather History & Observations

Time (CDT) Temp. Heat Index Dew Point Humidity Pressure Visibility Wind Dir Wind Speed Gust Speed Precip Events Conditions
12:15 AM 73.4 °F - 69.8 °F 88% 29.75 in 9.0 mi SSE 15.0 mph 24.2 mph N/A   Mostly Cloudy
12:35 AM 73.4 °F - 69.8 °F 88% 29.75 in 9.0 mi South 13.8 mph 24.2 mph N/A   Scattered Clouds
12:55 AM 73.4 °F - 69.8 °F 88% 29.74 in 9.0 mi SSE 13.8 mph 18.4 mph N/A   Scattered Clouds
1:15 AM 73.4 °F - 69.8 °F 88% 29.73 in 9.0 mi SSE 12.7 mph 20.7 mph N/A   Partly Cloudy
1:35 AM 73.4 °F - 69.8 °F 88% 29.72 in 9.0 mi SSE 13.8 mph 20.7 mph N/A   Partly Cloudy
1:55 AM 73.4 °F - 69.8 °F 88% 29.72 in 10.0 mi SSE 13.8 mph 19.6 mph N/A   Clear
2:15 AM 73.4 °F - 69.8 °F 88% 29.72 in 9.0 mi SSE 15.0 mph 21.9 mph N/A   Clear
2:35 AM 73.4 °F - 68.0 °F 83% 29.72 in 8.0 mi SSE 13.8 mph 21.9 mph N/A   Partly Cloudy
2:55 AM 73.4 °F - 68.0 °F 83% 29.72 in 9.0 mi SSE 10.4 mph 20.7 mph N/A   Partly Cloudy
3:15 AM 71.6 °F - 68.0 °F 88% 29.72 in 10.0 mi SSE 13.8 mph 19.6 mph N/A   Partly Cloudy
3:35 AM 73.4 °F - 68.0 °F 83% 29.73 in 9.0 mi SSE 10.4 mph 19.6 mph N/A   Scattered Clouds
4:15 AM 71.6 °F - 68.0 °F 88% 29.73 in 9.0 mi South 9.2 mph 18.4 mph N/A   Scattered Clouds
4:35 AM 73.4 °F - 68.0 °F 83% 29.71 in 9.0 mi SSE 11.5 mph 16.1 mph N/A Thunderstorm Mostly Cloudy
4:55 AM 73.4 °F - 68.0 °F 83% 29.70 in 10.0 mi SSE 16.1 mph 24.2 mph N/A   Mostly Cloudy
5:15 AM 73.4 °F - 68.0 °F 83% 29.69 in 9.0 mi SSE 19.6 mph 25.3 mph N/A   Mostly Cloudy
5:35 AM 73.4 °F - 68.0 °F 83% 29.70 in 9.0 mi SSE 13.8 mph 26.5 mph N/A   Mostly Cloudy
5:55 AM 73.4 °F - 69.8 °F 88% 29.70 in 9.0 mi SSE 17.3 mph 25.3 mph N/A   Mostly Cloudy
6:15 AM 73.4 °F - 69.8 °F 88% 29.69 in 10.0 mi SSE 12.7 mph 21.9 mph N/A   Mostly Cloudy
6:35 AM 73.4 °F - 69.8 °F 88% 29.70 in 8.0 mi South 13.8 mph 24.2 mph N/A   Mostly Cloudy
8:15 AM 75.2 °F - 69.8 °F 83% 29.78 in 8.0 mi SSW 9.2 mph 17.3 mph N/A   Mostly Cloudy
8:35 AM 75.2 °F - 69.8 °F 83% 29.79 in 7.0 mi SSW 13.8 mph 19.6 mph N/A   Mostly Cloudy
8:55 AM 75.2 °F - 69.8 °F 83% 29.81 in 8.0 mi South 10.4 mph - N/A   Mostly Cloudy
9:15 AM 75.2 °F - 69.8 °F 83% 29.80 in 8.0 mi South 9.2 mph 18.4 mph N/A   Partly Cloudy
9:35 AM 77.0 °F - 69.8 °F 78% 29.81 in 8.0 mi South 12.7 mph - N/A   Partly Cloudy
9:55 AM 77.0 °F - 69.8 °F 78% 29.81 in 7.0 mi South 10.4 mph 23.0 mph N/A   Mostly Cloudy
10:15 AM 77.0 °F - 69.8 °F 78% 29.80 in 7.0 mi South 10.4 mph 16.1 mph N/A   Mostly Cloudy
10:35 AM 78.8 °F - 71.6 °F 78% 29.80 in - South 10.4 mph 18.4 mph N/A   Mostly Cloudy
10:55 AM 78.8 °F - 71.6 °F 78% 29.79 in - South 15.0 mph 19.6 mph N/A   Scattered Clouds
11:15 AM 78.8 °F - 71.6 °F 78% 29.78 in - South 11.5 mph 20.7 mph N/A   Scattered Clouds
11:35 AM 78.8 °F - 71.6 °F 78% 29.78 in - South 15.0 mph 21.9 mph N/A   Mostly Cloudy
11:55 AM 80.6 °F 84.6 °F 71.6 °F 74% 29.77 in - South 12.7 mph 24.2 mph N/A   Mostly Cloudy
12:15 PM 80.6 °F 84.6 °F 71.6 °F 74% 29.76 in - South 13.8 mph 21.9 mph N/A   Mostly Cloudy
12:35 PM 82.4 °F 87.2 °F 71.6 °F 70% 29.75 in - South 16.1 mph 25.3 mph N/A   Partly Cloudy
12:55 PM 82.4 °F 87.2 °F 71.6 °F 70% 29.73 in - South 12.7 mph 24.2 mph N/A   Scattered Clouds
1:55 PM 84.2 °F 89.6 °F 71.6 °F 66% 29.70 in - South 19.6 mph 31.1 mph N/A   Scattered Clouds
2:15 PM 84.2 °F 89.6 °F 71.6 °F 66% 29.69 in - South 15.0 mph 27.6 mph N/A   Mostly Cloudy
2:35 PM 84.2 °F 89.6 °F 71.6 °F 66% 29.68 in - South 17.3 mph 27.6 mph N/A   Mostly Cloudy
2:55 PM 82.4 °F 87.2 °F 71.6 °F 70% 29.67 in - South 16.1 mph 25.3 mph N/A   Mostly Cloudy
3:15 PM 84.2 °F 89.6 °F 71.6 °F 66% 29.65 in - South 18.4 mph 25.3 mph N/A   Partly Cloudy
3:35 PM 86.0 °F 91.8 °F 71.6 °F 62% 29.63 in - South 19.6 mph 29.9 mph N/A   Clear
3:55 PM 84.2 °F 89.6 °F 71.6 °F 66% 29.62 in - South 17.3 mph 26.5 mph N/A   Scattered Clouds
4:15 PM 82.4 °F 87.2 °F 71.6 °F 70% 29.62 in - SSW 11.5 mph 17.3 mph N/A   Mostly Cloudy
4:35 PM 82.4 °F 86.3 °F 69.8 °F 66% 29.62 in - SSW 17.3 mph 24.2 mph N/A   Partly Cloudy
4:55 PM 80.6 °F 84.6 °F 71.6 °F 74% 29.58 in - South 11.5 mph 19.6 mph N/A   Scattered Clouds
5:15 PM 80.6 °F 84.6 °F 71.6 °F 74% 29.59 in - South 11.5 mph 20.7 mph N/A   Partly Cloudy
5:35 PM 80.6 °F 84.6 °F 71.6 °F 74% 29.58 in - South 15.0 mph 21.9 mph N/A   Clear
5:55 PM 80.6 °F 84.6 °F 71.6 °F 74% 29.61 in - South 15.0 mph 19.6 mph N/A Thunderstorm Thunderstorm
6:15 PM 78.8 °F - 71.6 °F 78% 29.60 in - South 17.3 mph 25.3 mph N/A Rain Light Rain
6:35 PM 77.0 °F - 71.6 °F 83% 29.60 in - South 11.5 mph - N/A   Mostly Cloudy
6:55 PM 75.2 °F - 71.6 °F 89% 29.58 in - South 10.4 mph 19.6 mph N/A Rain Rain
7:15 PM 75.2 °F - 71.6 °F 89% 29.61 in - SSW 10.4 mph 20.7 mph 0.02 in Rain , Thunderstorm Light Thunderstorms and Rain
7:35 PM 73.4 °F - 73.4 °F 100% 29.60 in - SW 8.1 mph - 0.09 in Rain , Thunderstorm Thunderstorms and Rain
7:55 PM 73.4 °F - 73.4 °F 100% 29.59 in - SSW 11.5 mph - 0.14 in Thunderstorm Thunderstorm
8:15 PM 73.4 °F - 73.4 °F 100% 29.62 in - SW 9.2 mph 18.4 mph N/A Thunderstorm Thunderstorm
8:35 PM 73.4 °F - 73.4 °F 100% 29.61 in - SSW 10.4 mph - N/A Thunderstorm Unknown
9:15 PM 73.4 °F - 73.4 °F 100% 29.63 in - SSW 8.1 mph - N/A Thunderstorm Thunderstorm
9:35 PM 73.4 °F - 73.4 °F 100% 29.66 in - SW 5.8 mph - N/A   Unknown
9:55 PM 73.4 °F - 73.4 °F 100% 29.67 in - WSW 6.9 mph - N/A Thunderstorm Thunderstorm
10:15 PM 73.4 °F - 73.4 °F 100% 29.69 in - WSW 9.2 mph - N/A Rain Light Rain
10:35 PM 73.4 °F - 71.6 °F 94% 29.70 in - West 8.1 mph - N/A   Unknown
10:55 PM 71.6 °F - 64.4 °F 78% 29.69 in - West 5.8 mph - 0.01 in   Scattered Clouds
11:15 PM 69.8 °F - 66.2 °F 88% 29.69 in 8.0 mi West 5.8 mph - N/A   Clear
11:35 PM 71.6 °F - 68.0 °F 88% 29.70 in - West 8.1 mph - N/A   Unknown
11:55 PM 71.6 °F - 69.8 °F 94% 29.69 in - West 9.2 mph - N/A Thunderstorm Thunderstorm